Temperature
24 25 25 24 24 24 25 24 25 25 25 24 25 25 24 22 21 21 21 21 21 20 20 19 19 20 21 21 21 21 21 20 20 20 19 19 19 18 18 18 18 18 17 17
26 24 24 24 24 24 24 24 24 24 24 24 24 24 23 21 21 20 20 20 20 19 19 19 19 19 20 21 21 21 21 21 20 20 20 20 19 19 19 19 18 18 18 18
24 23 24 24 24 24 24 23 23 23 23 24 24 24 23 22 21 20 19 19 19 18 18 18 18 19 19 20 21 21 21 21 21 20 20 20 19 19 18 18 18 18 18 18
23 23 23 23 22 22 23 22 21 22 22 23 23 23 24 22 21 20 19 19 18 17 17 17 17 17 18 19 20 20 20 20 20 20 19 19 19 18 18 18 18 18 18 18
22 22 22 22 21 21 21 21 21 21 22 22 23 22 24 21 20 20 19 18 17 17 16 16 16 16 17 18 19 19 19 19 19 19 19 19 18 18 17 17 17 17 18 18
22 21 21 21 21 21 21 21 22 22 22 21 22 22 22 19 18 18 18 18 17 16 16 16 16 16 16 17 17 18 18 18 18 18 18 17 17 17 17 17 17 17 17 17
22 21 20 20 21 21 20 20 20 20 20 20 22 21 18 16 17 17 17 17 16 16 16 15 15 15 15 16 16 17 17 17 17 17 16 16 16 16 16 16 16 17 17 17
21 20 19 19 19 19 19 19 18 17 18 19 20 18 15 16 16 16 16 16 15 15 15 14 14 14 14 15 15 15 16 15 15 15 15 15 15 16 15 16 16 16 16 16
20 19 19 18 18 18 18 18 18 17 18 18 19 17 15 16 16 15 15 15 14 14 14 14 14 13 13 14 14 14 15 14 15 15 15 15 15 15 15 15 15 16 16 16
19 19 18 18 18 18 17 17 17 16 16 16 17 16 13 13 13 14 14 13 13 13 13 13 13 13 13 13 13 14 14 14 14 14 14 14 15 15 15 15 16 16 16 16
19 19 18 18 16 15 16 15 15 16 15 15 14 13 12 11 12 12 12 12 12 13 12 12 13 13 13 13 13 14 14 14 14 14 14 14 15 15 15 15 16 16 16 16
18 19 18 17 16 16 15 14 14 14 14 14 13 12 11 11 11 11 11 11 12 12 12 12 12 13 13 13 13 13 14 14 14 14 15 15 15 15 15 15 16 16 16 15
18 18 18 17 16 16 14 14 14 13 13 12 12 11 11 11 11 11 11 11 11 12 12 12 12 12 13 13 13 13 14 14 14 14 15 15 15 15 15 15 15 15 15 15
17 18 17 15 14 13 13 14 14 14 12 12 11 11 11 11 11 11 11 11 11 11 11 11 12 12 12 13 13 13 14 14 14 14 14 14 15 15 15 15 15 15 15 15
18 17 16 15 14 14 14 13 13 13 12 11 11 11 11 11 11 11 11 11 12 11 11 11 11 11 12 12 13 13 13 13 14 14 14 14 14 15 15 15 15 15 15 15
17 17 16 15 15 15 14 14 13 13 12 12 12 12 12 12 12 12 12 12 12 12 12 12 12 12 12 12 12 12 12 13 13 13 14 14 14 14 15 15 15 15 15 15
17 17 17 16 15 15 15 13 13 13 12 12 12 12 12 12 12 12 12 12 12 12 12 12 12 12 12 12 11 11 12 12 12 13 13 13 13 14 14 14 14 14 14 15
17 16 16 16 16 15 14 14 13 13 13 13 13 13 12 12 12 13 12 12 13 13 13 12 12 12 12 12 12 12 12 12 12 12 12 12 12 13 13 13 13 13 13 14
16 16 16 17 16 15 14 14 14 14 14 14 14 14 13 13 15 15 13 13 13 13 13 13 12 12 12 12 12 12 12 12 11 11 11 12 12 12 12 12 12 12 12 12
15 16 17 16 17 16 16 14 13 14 15 14 13 14 14 15 17 15 13 13 13 13 13 13 13 13 13 12 12 12 12 12 11 11 11 11 12 12 12 12 12 12 12 12
16 16 16 16 17 16 15 13 13 15 15 14 13 13 13 14 14 13 13 13 13 13 14 13 13 13 13 13 13 13 12 12 11 11 11 11 11 11 12 12 12 12 12 12
17 17 16 16 16 16 14 13 15 16 14 13 13 13 13 13 13 13 13 13 14 14 14 14 14 13 13 13 13 13 12 12 11 11 11 11 11 11 11 12 12 12 12 11
16 17 17 16 16 14 13 14 13 13 13 13 13 12 12 12 13 13 13 13 13 14 14 14 14 14 14 13 13 13 12 12 11 11 11 11 11 11 11 11 11 11 11 11
16 14 15 15 15 14 13 13 12 12 13 12 12 12 12 12 13 13 13 13 13 14 14 15 15 14 14 14 13 13 13 12 12 11 11 11 11 11 11 11 11 11 11 10
17 15 15 16 15 14 13 13 13 12 12 12 12 12 12 12 12 12 13 13 13 14 14 14 14 15 15 14 14 14 13 13 12 12 11 11 11 11 10 10 10 10 10 10
16 15 16 17 16 15 15 13 13 12 12 12 12 12 12 12 12 12 12 12 13 14 14 14 15 15 15 15 14 14 14 13 13 12 12 11 11 11 10 10 10 10 10 10
Wind_Speed
0 1 2 4 3 5 6 8 9 7 4 6 8 7 1 4 6 7 8 9 10 10 10 9 9 9 12 14 16 16 16 16 13 11 11 10 9 9 8 8 10 11 12 12
3 3 5 4 3 4 6 8 9 7 4 7 9 9 2 3 6 8 9 10 12 13 13 12 11 9 10 13 16 18 18 17 15 12 10 9 8 7 7 6 8 11 12 12
4 6 5 4 6 6 6 6 9 11 10 9 11 12 8 4 3 6 9 11 12 14 15 15 15 13 11 11 14 15 16 16 15 13 8 6 5 4 4 5 6 8 11 11
5 6 5 5 8 9 7 8 11 12 13 12 9 13 8 4 2 6 11 13 14 15 15 15 16 15 12 11 10 12 12 13 13 13 10 9 5 4 2 2 3 6 8 10
5 7 8 8 9 9 8 12 13 13 14 16 14 13 8 3 2 8 13 14 15 15 15 15 15 15 13 10 6 5 7 9 10 12 12 9 5 2 1 0 2 4 5 8
7 6 8 9 6 7 11 13 12 11 11 14 13 13 6 4 8 12 14 15 16 15 15 14 14 12 11 9 4 2 5 7 9 11 11 9 8 5 3 1 2 3 3 5
3 7 7 10 10 8 12 12 7 7 7 9 6 7 3 8 10 12 15 16 15 15 15 14 13 11 10 9 7 7 9 10 9 10 10 8 8 7 4 2 2 3 4 5
5 3 8 10 9 9 9 9 6 7 8 9 5 2 5 9 11 13 14 15 15 15 14 12 11 9 8 9 9 9 10 11 10 10 8 8 7 4 2 1 2 4 4 4
6 3 5 7 8 9 8 7 6 7 10 9 4 2 3 13 17 18 17 17 16 15 13 11 8 8 7 8 9 9 10 11 11 9 8 6 6 4 2 2 4 4 3 3
5 3 4 5 5 9 8 7 6 4 5 5 4 2 7 16 19 19 19 18 17 14 11 9 7 7 7 8 8 8 9 10 9 7 6 4 3 2 2 3 5 4 5 5
5 3 3 4 9 12 10 7 5 4 4 4 3 3 8 14 16 17 17 17 15 12 10 9 8 7 7 7 7 8 7 7 6 6 4 3 1 0 2 3 3 4 5 5
4 3 2 5 5 7 7 7 6 4 4 4 3 3 9 13 13 15 16 16 14 12 11 10 10 9 9 8 7 7 6 6 5 3 2 1 1 2 4 3 4 4 5 4
3 3 1 3 2 7 7 9 6 2 2 3 2 3 8 13 15 16 16 16 14 14 15 13 12 11 10 9 8 7 6 5 4 3 2 1 1 2 2 3 3 3 3 4
2 5 6 5 4 5 7 11 10 4 3 3 4 5 11 16 16 17 17 16 15 15 15 14 13 13 12 10 9 8 7 5 4 3 3 3 2 1 1 1 1 2 3 3
0 5 7 8 6 5 9 10 11 10 6 4 5 6 10 14 13 13 14 15 16 16 15 14 13 13 12 12 11 10 9 8 7 7 7 6 5 5 4 3 1 1 2 4
1 4 6 5 3 3 7 10 9 8 6 5 5 5 10 10 10 12 14 14 14 15 15 14 14 13 13 12 11 10 10 9 9 9 9 7 7 6 5 4 3 2 2 3
1 4 3 3 2 3 3 6 5 5 5 5 5 7 11 10 11 12 13 13 13 13 13 13 13 12 12 11 11 11 10 10 10 10 9 9 8 7 7 6 5 4 3 2
1 3 2 2 3 1 3 1 1 2 3 4 5 7 8 8 6 6 10 11 11 11 11 11 11 10 10 10 10 10 10 11 11 11 10 9 8 8 8 8 7 6 5 4
1 2 2 2 2 3 3 3 2 1 1 3 5 7 8 8 0 7 13 12 11 10 9 9 9 9 9 9 9 9 10 11 11 11 10 10 9 9 8 8 8 7 6 5
2 2 3 3 2 2 4 5 2 3 1 1 3 6 8 8 5 8 13 13 11 9 8 8 8 9 9 9 8 9 10 10 10 10 10 9 9 9 9 8 8 7 6 6
3 3 3 3 2 2 5 6 4 3 3 2 2 5 7 7 7 9 11 10 9 8 8 8 7 8 8 7 7 8 9 9 8 8 8 9 9 9 8 8 8 7 7 7
3 3 4 4 4 3 9 7 5 2 3 1 2 4 6 7 7 9 9 10 9 9 8 8 7 7 6 6 6 7 7 6 5 6 7 8 8 8 7 8 8 8 8 8
5 4 3 4 0 4 8 5 2 1 2 0 2 4 6 7 8 9 9 9 9 9 8 7 7 6 5 5 5 6 5 4 4 5 6 6 7 7 8 8 8 8 8 7
5 4 4 5 6 6 7 6 5 5 3 1 3 4 5 6 8 9 9 9 9 9 8 8 7 6 5 5 3 3 3 3 4 5 6 6 6 7 7 7 7 7 8 8
6 8 6 6 5 7 10 10 8 6 4 3 2 3 4 6 7 8 8 9 9 8 8 7 7 7 7 6 4 2 2 2 3 4 5 5 6 6 6 7 6 7 8 7
8 9 7 6 9 8 10 13 11 8 6 4 2 3 3 5 7 8 8 9 9 9 8 8 8 8 8 7 5 3 2 2 3 4 5 5 5 5 5 5 6 7 6 8
Wind_Direction
97 237 7 356 330 303 294 282 280 287 308 287 272 271 303 53 44 32 20 11 2 354 344 335 317 292 268 247 237 230 220 212 204 196 199 199 205 206 207 211 214 214 221 226
195 58 20 4 352 301 291 287 290 292 306 287 275 270 195 98 60 35 18 8 2 353 348 346 334 313 283 258 242 234 223 213 204 197 194 197 200 206 208 210 216 220 224 226
60 37 18 10 9 333 308 317 313 304 301 267 271 260 209 167 95 38 20 8 1 354 346 344 339 329 307 276 253 239 226 212 201 187 178 171 171 175 187 205 216 223 227 229
69 38 20 18 20 348 311 343 313 298 285 272 259 272 231 185 178 21 9 3 357 353 347 343 340 335 322 299 272 249 226 209 193 177 170 169 174 185 206 219 226 228 228 231
68 37 28 24 14 353 333 319 300 288 278 273 256 259 244 135 355 1 360 356 353 350 347 343 342 339 333 321 296 255 214 195 178 168 162 157 150 151 95 61 246 239 232 234
83 61 35 12 355 357 329 309 286 264 265 261 259 254 248 51 2 349 349 350 349 347 346 346 348 349 350 352 1 71 130 138 143 145 145 146 140 136 133 191 244 236 226 232
82 67 36 6 346 348 346 332 304 274 252 265 289 261 66 39 8 352 344 344 345 346 347 349 352 359 8 18 40 73 99 106 115 121 122 129 131 134 153 192 224 232 219 215
345 27 31 19 8 338 346 341 323 299 295 303 298 262 81 23 3 354 350 348 347 348 348 350 357 6 21 34 50 69 87 93 96 105 110 108 108 114 131 201 227 227 221 212
353 24 47 27 20 3 345 351 331 294 288 282 271 94 63 3 358 354 352 350 347 344 347 351 6 23 39 52 61 74 86 88 89 92 95 98 101 107 147 196 222 208 191 185
344 336 35 17 3 29 8 338 316 303 304 290 298 8 2 352 347 346 349 347 343 344 353 1 18 31 45 55 60 68 81 87 84 84 88 87 93 122 167 204 210 192 178 172
339 335 44 44 26 7 8 3 336 300 288 302 311 34 7 344 341 342 343 344 344 353 5 13 20 33 46 48 47 52 63 70 71 73 70 65 46 58 238 226 203 184 175 173
358 332 49 81 67 26 23 0 339 332 334 325 313 4 357 345 348 351 350 351 354 9 20 24 24 31 34 38 37 33 31 39 36 50 63 69 232 225 227 212 192 181 176 179
356 334 303 147 97 25 17 7 359 319 322 347 342 344 348 355 2 3 1 4 10 21 25 25 25 27 29 28 27 24 23 25 22 22 21 10 219 225 224 199 180 183 189 192
334 47 50 63 51 10 10 16 25 31 24 16 14 354 358 0 1 2 3 9 22 31 32 28 26 26 26 27 27 28 31 37 44 51 55 55 54 54 44 98 185 220 226 228
3 94 98 102 98 59 41 30 35 45 39 31 3 10 358 349 351 0 9 15 25 30 32 31 29 30 29 33 33 35 38 43 54 61 59 51 46 43 40 36 5 302 278 259
65 132 139 135 141 68 51 36 34 36 27 21 20 29 352 345 2 14 18 19 23 28 30 32 33 33 35 36 38 42 46 49 55 57 53 46 46 44 35 29 22 8 326 285
144 169 183 139 166 215 59 30 26 32 21 4 8 346 335 351 5 11 12 15 22 26 27 29 32 34 35 38 40 44 48 54 56 56 51 46 44 42 36 34 33 24 10 344
175 174 188 163 193 164 88 90 323 350 20 6 352 345 341 335 338 18 20 13 16 18 22 25 27 31 34 39 43 49 51 52 53 52 49 45 42 43 40 38 33 25 19 17
328 206 193 209 170 140 176 193 225 258 41 4 352 357 352 331 248 57 24 10 7 7 13 19 20 26 34 35 36 47 53 53 51 46 43 41 40 39 37 35 32 27 27 30
108 220 221 209 221 198 149 142 184 239 171 72 351 359 358 358 47 27 0 356 360 3 7 10 17 27 33 30 31 44 51 51 48 44 44 43 42 39 37 35 32 30 35 38
197 196 214 218 228 169 144 149 183 219 103 94 360 360 2 12 4 339 342 355 360 2 3 3 14 25 25 23 33 46 50 49 45 44 44 42 40 40 36 35 36 37 39 43
227 209 206 213 220 197 153 168 201 81 97 112 360 358 355 348 344 347 352 358 0 2 2 359 3 15 20 21 32 49 48 43 43 44 44 42 39 36 35 37 37 38 38 40
222 232 235 225 233 96 169 189 179 175 185 176 346 347 340 338 346 349 352 355 357 356 356 352 348 351 9 24 23 37 42 35 39 43 42 39 43 43 38 37 36 37 35 36
198 197 222 231 218 193 192 199 200 208 219 261 313 324 328 334 341 346 348 350 352 353 352 345 340 342 354 0 360 9 19 11 22 35 35 37 41 45 48 43 40 40 34 32
205 188 211 224 193 190 207 206 200 198 213 240 280 310 325 331 339 343 343 347 346 345 345 341 338 335 332 334 331 329 334 338 8 32 40 42 48 48 52 60 48 44 48 32
199 195 198 210 191 191 195 194 193 195 204 221 262 306 330 334 336 340 342 344 341 340 340 340 337 329 327 329 327 319 291 303 348 26 38 40 47 49 49 64 87 71 53 45
Height
1519 1517 1519 1519 1518 1517 1516 1516 1515 1512 1511 1513 1510 1510 1512 1516 1516 1515 1515 1514 1513 1512 1512 1510 1508 1508 1509 1510 1512 1514 1517 1518 1521 1522 1524 1526 1528 1530 1531 1533 1534 1536 1537 1539
1517 1520 1522 1521 1519 1518 1517 1518 1516 1512 1513 1513 1510 1508 1511 1515 1516 1517 1516 1514 1513 1511 1509 1507 1505 1504 1503 1504 1506 1508 1510 1513 1515 1517 1520 1522 1525 1527 1529 1530 1532 1533 1535 1536
1520 1526 1524 1522 1521 1520 1519 1522 1521 1520 1514 1511 1511 1508 1508 1512 1515 1517 1516 1515 1513 1511 1508 1505 1502 1500 1498 1497 1498 1501 1503 1506 1508 1511 1514 1517 1521 1524 1525 1527 1529 1531 1532 1533
1525 1528 1526 1524 1526 1525 1522 1524 1523 1520 1517 1510 1509 1511 1501 1508 1512 1514 1515 1514 1512 1510 1507 1503 1500 1496 1494 1492 1492 1494 1496 1498 1502 1504 1507 1511 1515 1519 1522 1524 1526 1527 1529 1530
1530 1531 1529 1530 1532 1530 1527 1525 1521 1518 1514 1512 1506 1510 1500 1507 1512 1514 1516 1514 1512 1510 1506 1502 1498 1494 1490 1487 1487 1487 1489 1492 1495 1498 1501 1505 1509 1514 1518 1521 1523 1524 1525 1526
1533 1535 1535 1536 1533 1533 1528 1522 1515 1512 1511 1515 1505 1507 1507 1515 1521 1518 1517 1515 1512 1509 1506 1502 1498 1493 1489 1486 1484 1483 1485 1487 1491 1494 1496 1500 1504 1508 1513 1516 1520 1522 1523 1523
1533 1536 1539 1538 1533 1531 1529 1527 1523 1520 1517 1514 1504 1508 1521 1525 1524 1523 1519 1516 1512 1509 1505 1501 1497 1493 1489 1486 1484 1483 1483 1485 1488 1491 1494 1498 1500 1505 1510 1514 1517 1520 1521 1522
1538 1539 1543 1542 1542 1539 1534 1533 1538 1539 1529 1520 1513 1519 1531 1529 1527 1524 1521 1517 1513 1509 1505 1501 1498 1494 1491 1488 1486 1485 1485 1486 1488 1491 1493 1496 1500 1504 1508 1512 1516 1519 1521 1521
1542 1543 1545 1546 1545 1542 1539 1537 1538 1539 1531 1529 1519 1525 1530 1528 1526 1524 1521 1517 1513 1509 1505 1501 1499 1496 1493 1491 1489 1488 1488 1488 1490 1492 1495 1498 1501 1505 1509 1512 1515 1518 1519 1519
1544 1546 1547 1548 1545 1545 1545 1544 1540 1540 1542 1537 1529 1532 1541 1536 1532 1527 1523 1519 1514 1509 1505 1502 1499 1497 1495 1493 1493 1492 1492 1493 1494 1495 1498 1501 1503 1506 1509 1513 1515 1517 1517 1519
1546 1544 1547 1548 1551 1553 1550 1550 1547 1542 1542 1547 1544 1548 1549 1546 1540 1534 1527 1522 1515 1510 1506 1503 1501 1499 1497 1496 1496 1496 1497 1497 1498 1500 1502 1504 1505 1507 1510 1513 1514 1515 1517 1518
1550 1545 1547 1553 1556 1556 1555 1556 1554 1553 1549 1548 1552 1558 1552 1548 1543 1537 1529 1522 1516 1511 1508 1505 1503 1501 1500 1499 1499 1499 1500 1501 1502 1503 1504 1506 1508 1509 1511 1513 1514 1515 1517 1518
1551 1548 1547 1551 1557 1558 1558 1557 1555 1554 1555 1556 1558 1562 1553 1548 1542 1537 1531 1524 1519 1514 1511 1508 1505 1504 1503 1502 1502 1502 1502 1503 1504 1504 1506 1507 1508 1510 1511 1513 1514 1515 1516 1517
1553 1551 1554 1562 1566 1565 1564 1560 1555 1554 1558 1560 1562 1560 1553 1548 1544 1539 1534 1528 1523 1519 1515 1512 1509 1508 1506 1505 1505 1505 1505 1505 1505 1506 1507 1508 1509 1510 1511 1512 1513 1514 1515 1516
1553 1555 1558 1562 1565 1564 1565 1563 1560 1560 1562 1563 1563 1559 1557 1553 1548 1544 1539 1533 1529 1525 1522 1519 1516 1514 1511 1509 1508 1508 1507 1507 1507 1507 1508 1509 1509 1510 1510 1511 1511 1512 1513 1513
1555 1556 1558 1562 1564 1563 1563 1564 1563 1563 1564 1562 1559 1558 1558 1554 1550 1546 1542 1539 1535 1532 1529 1526 1523 1520 1517 1515 1513 1512 1511 1510 1509 1509 1509 1509 1509 1509 1510 1510 1510 1510 1510 1510
1555 1555 1556 1557 1561 1561 1562 1567 1567 1566 1566 1564 1563 1563 1559 1554 1552 1549 1546 1543 1540 1537 1535 1532 1529 1526 1524 1521 1519 1517 1515 1514 1513 1511 1511 1510 1510 1509 1509 1508 1508 1508 1508 1507
1556 1556 1556 1556 1559 1564 1567 1567 1568 1567 1566 1565 1563 1561 1559 1556 1554 1552 1550 1547 1544 1541 1539 1536 1534 1531 1529 1526 1524 1522 1520 1518 1516 1514 1513 1512 1511 1510 1509 1508 1507 1506 1505 1505
1559 1557 1556 1555 1555 1561 1565 1565 1566 1565 1564 1564 1562 1560 1558 1555 1552 1552 1551 1549 1547 1545 1542 1540 1537 1535 1533 1530 1528 1527 1524 1522 1520 1518 1516 1515 1514 1512 1510 1509 1508 1506 1505 1504
1561 1558 1555 1555 1554 1557 1559 1564 1566 1567 1561 1563 1563 1561 1559 1554 1549 1554 1553 1550 1548 1546 1544 1542 1540 1538 1536 1533 1531 1530 1528 1526 1523 1522 1520 1518 1516 1514 1512 1511 1509 1507 1506 1504
1556 1556 1555 1554 1553 1553 1559 1564 1567 1564 1560 1563 1563 1562 1560 1558 1558 1558 1554 1552 1550 1548 1546 1545 1543 1541 1539 1536 1535 1533 1531 1529 1527 1525 1523 1521 1519 1517 1514 1513 1511 1509 1507 1505
1551 1552 1554 1554 1555 1558 1559 1562 1562 1559 1561 1562 1563 1562 1562 1561 1559 1557 1555 1553 1551 1549 1548 1546 1545 1543 1541 1539 1537 1535 1533 1531 1529 1527 1525 1523 1521 1519 1516 1514 1513 1511 1509 1507
1551 1551 1549 1551 1553 1555 1558 1559 1560 1561 1562 1562 1563 1562 1562 1561 1559 1557 1556 1554 1552 1550 1549 1547 1546 1545 1543 1541 1539 1537 1535 1533 1531 1529 1527 1525 1523 1520 1518 1516 1515 1513 1511 1509
1549 1553 1552 1551 1551 1555 1557 1558 1560 1561 1562 1562 1562 1562 1561 1560 1559 1557 1556 1554 1552 1551 1549 1548 1547 1546 1544 1542 1540 1538 1536 1534 1533 1531 1529 1527 1525 1523 1521 1518 1516 1514 1513 1511
1544 1549 1548 1547 1549 1553 1554 1556 1558 1560 1561 1562 1562 1562 1561 1560 1559 1557 1556 1554 1552 1550 1549 1547 1546 1545 1544 1542 1541 1539 1537 1536 1535 1533 1531 1529 1527 1525 1523 1520 1518 1516 1515 1513
1539 1541 1542 1540 1543 1546 1548 1552 1555 1558 1559 1561 1561 1561 1561 1560 1558 1557 1555 1553 1551 1550 1548 1547 1546 1544 1543 1542 1540 1539 1537 1536 1535 1534 1532 1530 1529 1527 1525 1523 1521 1519 1518 1516